Time,TemperatureF,DewpointF,PressureIn,WindDirection,WindDirectionDegrees,WindSpeedMPH,WindSpeedGustMPH,Humidity,HourlyPrecipIn,Conditions,Clouds,dailyrainin,SoftwareType,DateUTC
2013-03-18 00:03:00,67.0,58.0,30.04,SE,127,0.0,1.0,74,0.00,,,0.00,,2013-03-18 04:03:00,
2013-03-18 00:13:00,67.0,58.0,30.04,SE,127,0.0,1.0,74,0.00,,,0.00,,2013-03-18 04:13:00,
2013-03-18 00:23:00,67.0,58.0,30.04,SE,127,0.0,0.0,74,0.00,,,0.00,,2013-03-18 04:23:00,
2013-03-18 00:33:00,67.0,58.0,30.04,SE,127,0.0,0.0,74,0.00,,,0.00,,2013-03-18 04:33:00,
2013-03-18 00:42:00,67.0,58.0,30.04,SE,127,0.0,0.0,74,0.00,,,0.00,,2013-03-18 04:42:00,
2013-03-18 00:53:00,67.0,59.0,30.04,SE,127,0.0,2.0,75,0.00,,,0.00,,2013-03-18 04:53:00,
2013-03-18 01:03:00,67.0,59.0,30.04,SE,127,0.0,2.0,75,0.00,,,0.00,,2013-03-18 05:03:00,
2013-03-18 01:12:00,67.0,59.0,30.04,SE,127,0.0,2.0,75,0.00,,,0.00,,2013-03-18 05:12:00,
2013-03-18 01:22:00,66.0,58.0,30.00,SSE,154,1.0,3.0,76,0.00,,,0.00,,2013-03-18 05:22:00,
2013-03-18 01:32:00,66.0,58.0,30.00,SSE,154,1.0,3.0,76,0.00,,,0.00,,2013-03-18 05:32:00,
2013-03-18 01:43:00,66.0,58.0,30.00,SSE,154,1.0,3.0,76,0.00,,,0.00,,2013-03-18 05:43:00,
2013-03-18 01:52:00,67.0,59.0,30.00,SSE,152,0.0,6.0,75,0.00,,,0.00,,2013-03-18 05:52:00,
2013-03-18 02:02:00,67.0,59.0,30.00,SSE,152,0.0,6.0,75,0.00,,,0.00,,2013-03-18 06:02:00,
2013-03-18 02:12:00,67.0,59.0,30.00,SSE,152,0.0,6.0,75,0.00,,,0.00,,2013-03-18 06:12:00,
2013-03-18 02:22:00,67.0,58.0,29.99,ESE,123,1.0,3.0,73,0.00,,,0.00,,2013-03-18 06:22:00,
2013-03-18 02:31:00,67.0,58.0,29.99,SSE,147,0.0,3.0,74,0.00,,,0.00,,2013-03-18 06:31:00,
2013-03-18 02:32:00,67.0,58.0,29.99,ESE,123,1.0,3.0,73,0.00,,,0.00,,2013-03-18 06:32:00,
2013-03-18 02:42:00,67.0,58.0,29.99,ESE,123,1.0,3.0,73,0.00,,,0.00,,2013-03-18 06:42:00,
2013-03-18 02:53:00,67.0,58.0,29.99,SSE,147,0.0,3.0,74,0.00,,,0.00,,2013-03-18 06:53:00,
2013-03-18 03:02:00,67.0,58.0,29.99,SSE,147,0.0,3.0,74,0.00,,,0.00,,2013-03-18 07:02:00,
2013-03-18 03:12:00,67.0,58.0,29.99,SSE,147,0.0,3.0,74,0.00,,,0.00,,2013-03-18 07:12:00,
2013-03-18 03:22:00,67.0,58.0,29.99,SSE,147,0.0,3.0,74,0.00,,,0.00,,2013-03-18 07:22:00,
2013-03-18 08:22:00,64.0,59.0,30.01,SW,215,0.0,0.0,85,0.00,,,0.00,,2013-03-18 12:22:00,
2013-03-18 08:33:00,64.0,59.0,30.01,SW,215,0.0,0.0,85,0.00,,,0.00,,2013-03-18 12:33:00,
2013-03-18 08:43:00,64.0,59.0,30.01,SW,215,0.0,0.0,85,0.00,,,0.00,,2013-03-18 12:43:00,
2013-03-18 08:52:00,65.0,61.0,30.01,SSW,210,0.0,2.0,86,0.00,,,0.00,,2013-03-18 12:52:00,
2013-03-18 09:02:00,65.0,61.0,30.01,SSW,210,0.0,2.0,86,0.00,,,0.00,,2013-03-18 13:02:00,
2013-03-18 09:12:00,65.0,61.0,30.01,SSW,210,0.0,2.0,86,0.00,,,0.00,,2013-03-18 13:12:00,
2013-03-18 09:22:00,67.0,62.0,30.00,SSE,162,0.0,6.0,83,0.00,,,0.00,,2013-03-18 13:22:00,
2013-03-18 09:33:00,67.0,62.0,30.00,SSE,162,0.0,6.0,83,0.00,,,0.00,,2013-03-18 13:33:00,
2013-03-18 09:42:00,67.0,62.0,30.00,SSE,162,0.0,6.0,83,0.00,,,0.00,,2013-03-18 13:42:00,
2013-03-18 09:52:00,69.0,62.0,30.01,SSE,150,1.0,5.0,78,0.00,,,0.00,,2013-03-18 13:52:00,
2013-03-18 10:02:00,69.0,62.0,30.01,SSE,150,1.0,5.0,78,0.00,,,0.00,,2013-03-18 14:02:00,
2013-03-18 10:12:00,69.0,62.0,30.01,SSE,150,1.0,5.0,78,0.00,,,0.00,,2013-03-18 14:12:00,
2013-03-18 10:22:00,71.0,62.0,30.01,SSW,208,0.0,6.0,74,0.00,,,0.00,,2013-03-18 14:22:00,
2013-03-18 10:32:00,71.0,62.0,30.01,SSW,208,0.0,6.0,74,0.00,,,0.00,,2013-03-18 14:32:00,
2013-03-18 10:42:00,71.0,62.0,30.01,SSW,208,0.0,6.0,74,0.00,,,0.00,,2013-03-18 14:42:00,
2013-03-18 10:52:00,72.0,62.0,30.02,SSW,206,0.0,6.0,72,0.00,,,0.00,,2013-03-18 14:52:00,
2013-03-18 11:02:00,72.0,62.0,30.02,SSW,206,0.0,6.0,72,0.00,,,0.00,,2013-03-18 15:02:00,
2013-03-18 11:12:00,72.0,62.0,30.02,SSW,206,0.0,6.0,72,0.00,,,0.00,,2013-03-18 15:12:00,
2013-03-18 11:22:00,73.0,63.0,30.01,South,189,1.0,5.0,72,0.00,,,0.00,,2013-03-18 15:22:00,
2013-03-18 11:33:00,73.0,63.0,30.01,South,189,1.0,5.0,72,0.00,,,0.00,,2013-03-18 15:33:00,
2013-03-18 11:43:00,73.0,63.0,30.01,South,189,1.0,5.0,72,0.00,,,0.00,,2013-03-18 15:43:00,
2013-03-18 11:52:00,75.0,65.0,30.01,WSW,239,1.0,6.0,70,0.00,,,0.00,,2013-03-18 15:52:00,
2013-03-18 12:03:00,75.0,65.0,30.01,WSW,239,1.0,6.0,70,0.00,,,0.00,,2013-03-18 16:03:00,
2013-03-18 12:12:00,75.0,65.0,30.01,WSW,239,1.0,6.0,70,0.00,,,0.00,,2013-03-18 16:12:00,
2013-03-18 12:23:00,77.0,65.0,30.01,South,171,1.0,8.0,66,0.00,,,0.00,,2013-03-18 16:23:00,
2013-03-18 12:33:00,77.0,65.0,30.01,South,171,1.0,8.0,66,0.00,,,0.00,,2013-03-18 16:33:00,
2013-03-18 12:42:00,77.0,65.0,30.01,South,171,1.0,8.0,66,0.00,,,0.00,,2013-03-18 16:42:00,
2013-03-18 12:53:00,77.0,64.0,30.00,WSW,240,2.0,6.0,64,0.00,,,0.00,,2013-03-18 16:53:00,
2013-03-18 13:01:00,78.0,64.0,29.99,SW,227,1.0,5.0,62,0.00,,,0.00,,2013-03-18 17:01:00,
2013-03-18 13:02:00,77.0,64.0,30.00,WSW,240,2.0,6.0,64,0.00,,,0.00,,2013-03-18 17:02:00,
2013-03-18 13:12:00,77.0,64.0,30.00,WSW,240,2.0,6.0,64,0.00,,,0.00,,2013-03-18 17:12:00,
2013-03-18 13:22:00,78.0,64.0,29.99,SW,227,1.0,5.0,62,0.00,,,0.00,,2013-03-18 17:22:00,
2013-03-18 13:32:00,78.0,64.0,29.99,SW,227,1.0,5.0,62,0.00,,,0.00,,2013-03-18 17:32:00,
2013-03-18 13:43:00,78.0,64.0,29.99,SW,227,1.0,5.0,62,0.00,,,0.00,,2013-03-18 17:43:00,
2013-03-18 13:52:00,78.0,64.0,29.99,SW,227,1.0,5.0,62,0.00,,,0.00,,2013-03-18 17:52:00,
2013-03-18 16:23:00,79.0,64.0,29.92,South,169,2.0,6.0,61,0.00,,,0.00,,2013-03-18 20:23:00,
2013-03-18 16:33:00,79.0,64.0,29.92,South,169,2.0,6.0,61,0.00,,,0.00,,2013-03-18 20:33:00,
2013-03-18 16:43:00,79.0,64.0,29.92,South,169,2.0,6.0,61,0.00,,,0.00,,2013-03-18 20:43:00,
2013-03-18 16:52:00,79.0,64.0,29.89,SSW,200,0.0,6.0,60,0.00,,,0.00,,2013-03-18 20:52:00,
2013-03-18 17:02:00,79.0,64.0,29.89,SSW,200,0.0,6.0,60,0.00,,,0.00,,2013-03-18 21:02:00,
2013-03-18 17:12:00,79.0,64.0,29.89,SSW,200,0.0,6.0,60,0.00,,,0.00,,2013-03-18 21:12:00,
2013-03-18 17:22:00,78.0,63.0,29.90,SW,219,1.0,5.0,60,0.00,,,0.00,,2013-03-18 21:22:00,
2013-03-18 17:32:00,78.0,63.0,29.90,SW,219,1.0,5.0,60,0.00,,,0.00,,2013-03-18 21:32:00,
2013-03-18 17:43:00,78.0,63.0,29.90,SW,219,1.0,5.0,60,0.00,,,0.00,,2013-03-18 21:43:00,
2013-03-18 17:53:00,77.0,63.0,29.90,SW,227,0.0,3.0,61,0.00,,,0.00,,2013-03-18 21:53:00,
2013-03-18 18:03:00,77.0,63.0,29.90,SW,227,0.0,3.0,61,0.00,,,0.00,,2013-03-18 22:03:00,
2013-03-18 18:13:00,77.0,63.0,29.90,SW,227,0.0,3.0,61,0.00,,,0.00,,2013-03-18 22:13:00,
2013-03-18 18:23:00,77.0,63.0,29.90,WSW,241,0.0,2.0,63,0.00,,,0.00,,2013-03-18 22:23:00,
2013-03-18 18:33:00,77.0,63.0,29.90,WSW,241,0.0,2.0,63,0.00,,,0.00,,2013-03-18 22:33:00,
2013-03-18 18:42:00,77.0,63.0,29.90,WSW,241,0.0,2.0,63,0.00,,,0.00,,2013-03-18 22:42:00,
2013-03-18 18:53:00,76.0,64.0,29.90,South,179,0.0,1.0,66,0.00,,,0.00,,2013-03-18 22:53:00,
2013-03-18 19:03:00,76.0,64.0,29.90,South,179,0.0,1.0,66,0.00,,,0.00,,2013-03-18 23:03:00,
2013-03-18 19:13:00,76.0,64.0,29.90,South,179,0.0,1.0,66,0.00,,,0.00,,2013-03-18 23:13:00,
2013-03-18 19:23:00,76.0,64.0,29.89,South,181,0.0,1.0,67,0.00,,,0.00,,2013-03-18 23:23:00,
2013-03-18 19:33:00,76.0,64.0,29.89,South,181,0.0,1.0,67,0.00,,,0.00,,2013-03-18 23:33:00,
2013-03-18 19:43:00,76.0,64.0,29.89,South,181,0.0,1.0,67,0.00,,,0.00,,2013-03-18 23:43:00,
2013-03-18 19:53:00,75.0,64.0,29.90,SE,131,1.0,3.0,69,0.00,,,0.00,,2013-03-18 23:53:00,
2013-03-18 20:02:00,75.0,64.0,29.90,SE,131,1.0,3.0,69,0.00,,,0.00,,2013-03-19 00:02:00,
2013-03-18 20:12:00,75.0,64.0,29.90,SE,131,1.0,3.0,69,0.00,,,0.00,,2013-03-19 00:12:00,
2013-03-18 20:23:00,74.0,64.0,29.91,SW,229,0.0,2.0,71,0.00,,,0.00,,2013-03-19 00:23:00,
2013-03-18 20:32:00,74.0,64.0,29.91,SW,229,0.0,2.0,71,0.00,,,0.00,,2013-03-19 00:32:00,
2013-03-18 20:43:00,74.0,64.0,29.91,SW,229,0.0,2.0,71,0.00,,,0.00,,2013-03-19 00:43:00,
2013-03-18 20:52:00,73.0,64.0,29.91,SSW,209,0.0,2.0,73,0.00,,,0.00,,2013-03-19 00:52:00,
2013-03-18 21:02:00,73.0,64.0,29.91,SSW,209,0.0,2.0,73,0.00,,,0.00,,2013-03-19 01:02:00,
2013-03-18 21:12:00,73.0,64.0,29.91,SSW,209,0.0,2.0,73,0.00,,,0.00,,2013-03-19 01:12:00,
2013-03-18 21:22:00,72.0,64.0,29.91,SW,226,0.0,6.0,77,0.00,,,0.00,,2013-03-19 01:22:00,
2013-03-18 21:32:00,72.0,64.0,29.91,SW,226,0.0,6.0,77,0.00,,,0.00,,2013-03-19 01:32:00,
2013-03-18 21:43:00,72.0,64.0,29.91,SW,226,0.0,6.0,77,0.00,,,0.00,,2013-03-19 01:43:00,
2013-03-18 21:52:00,72.0,65.0,29.91,South,191,1.0,5.0,78,0.00,,,0.00,,2013-03-19 01:52:00,
2013-03-18 22:03:00,72.0,65.0,29.91,South,191,1.0,5.0,78,0.00,,,0.00,,2013-03-19 02:03:00,
2013-03-18 22:13:00,72.0,65.0,29.91,South,191,1.0,5.0,78,0.00,,,0.00,,2013-03-19 02:13:00,
2013-03-18 22:22:00,71.0,64.0,29.91,SW,224,0.0,2.0,79,0.00,,,0.00,,2013-03-19 02:22:00,
2013-03-18 22:33:00,71.0,64.0,29.91,SW,224,0.0,2.0,79,0.00,,,0.00,,2013-03-19 02:33:00,
2013-03-18 22:43:00,71.0,64.0,29.91,SW,224,0.0,2.0,79,0.00,,,0.00,,2013-03-19 02:43:00,
2013-03-18 22:53:00,71.0,65.0,29.90,ESE,121,0.0,7.0,82,0.00,,,0.00,,2013-03-19 02:53:00,
2013-03-18 23:02:00,71.0,65.0,29.90,ESE,121,0.0,7.0,82,0.00,,,0.00,,2013-03-19 03:02:00,
2013-03-18 23:12:00,71.0,65.0,29.90,ESE,121,0.0,7.0,82,0.00,,,0.00,,2013-03-19 03:12:00,
2013-03-18 23:22:00,70.0,65.0,29.89,SW,222,1.0,7.0,85,0.00,,,0.00,,2013-03-19 03:22:00,
2013-03-18 23:33:00,70.0,65.0,29.89,SW,222,1.0,7.0,85,0.00,,,0.00,,2013-03-19 03:33:00,
2013-03-18 23:43:00,70.0,65.0,29.89,SW,222,1.0,7.0,85,0.00,,,0.00,,2013-03-19 03:43:00,
2013-03-18 23:54:00,70.0,66.0,29.89,SSW,200,1.0,6.0,86,0.00,,,0.00,,2013-03-19 03:54:00,